Regional Weather Roundup
Issued by NWS

Home | Current Version | Previous Version | Graphics & Text | Print | Product List | Glossary On
Versions: 1 2 3 4 5 6 7 8 9 10 11 12 13 14 15 16 17 18 19 20 21 22 23 24 25 26 27 28 29 30 31 32 33 34 35 36 37 38 39 40 41 42 43 44 45 46 47 48 49 50
000
ASUS43 KTOP 270408
RWRKS

WEATHER ROUNDUP FOR KANSAS
NATIONAL WEATHER SERVICE GOODLAND KS
1100 PM CDT FRI MAY 26 2017

NOTE:  "FAIR" INDICATES FEW OR NO CLOUDS BELOW 12,000 FEET WITH NO
SIGNIFICANT WEATHER AND/OR OBSTRUCTIONS TO VISIBILITY.

KSZ001>006-013>018-027>032-041>047-270500-
NORTHWEST KANSAS

CITY           SKY/WX    TMP DP  RH WIND       PRES   REMARKS
GOODLAND       TSTM      51  49  92 N29G49    29.94R FOG
HAYS           CLEAR     64  59  83 E6        29.86R
HILL CITY      CLOUDY    66  57  72 NE7       29.88R
RUSSELL        CLEAR     67  59  75 E9        29.83S
$$

KSZ061>065-074>080-084>089-270500-
SOUTHWEST KANSAS

CITY           SKY/WX    TMP DP  RH WIND       PRES   REMARKS
DODGE CITY     CLEAR     68  58  70 SE12      29.85R
ELKHART          N/A     67  47  48 MISG        N/A
GARDEN CITY    CLEAR     68  56  65 SE17      29.82F
GREAT BEND     CLEAR     67  60  78 SE8       29.85R
LIBERAL        CLEAR     69  56  62 SE15      29.82R
PRATT          CLEAR     69  58  68 E7        29.85S
$$

KSZ066>073-081>083-090>101-270500-
SOUTHEAST KANSAS

CITY           SKY/WX    TMP DP  RH WIND       PRES   REMARKS
CHANUTE        CLEAR     74  64  71 E6        29.83R
COFFEYVILLE    CLEAR     71  68  90 NE3       29.81R
HUTCHINSON     CLEAR     67  61  81 E6        29.84R
MEDICINE LODGE   N/A     71  60  68 E8        29.83R
NEWTON         CLEAR     70  62  76 E6        29.86R
PARSONS        CLEAR     68  65  90 CALM      29.83R
WICHITA INTL   CLEAR     73  63  70 E8        29.84R
WICHITA JABRA  CLEAR     70  63  78 SE5       29.85R
WINFIELD       CLEAR     74  62  66 E3        29.84R
$$

KSZ007>012-019>026-033>040-048>060-102>105-270500-
NORTHEAST KANSAS

CITY           SKY/WX    TMP DP  RH WIND       PRES   REMARKS
CONCORDIA      CLEAR     65  56  72 CALM      29.84S
EMPORIA        CLEAR     67  64  90 SE5       29.84R
LAWRENCE       CLEAR     68  65  90 CALM      29.83R
MANHATTAN      PTCLDY    66  62  87 CALM      29.83R
MARYSVILLE     CLEAR     68  54  60 NE6       29.85S
OLATHE IND     CLEAR     73  65  75 SE3       29.84R
OLATHE EXE     CLEAR     72  65  78 SE5       29.84R
SALINA         CLEAR     75  60  59 E5        29.84R
TOPEKA BILLARD CLEAR     69  67  93 CALM      29.82R
TOPEKA FORBES  CLEAR     69  65  86 CALM      29.83R
$$




USA.gov is the U.S. government's official web portal to all federal, state and local government web resources and services.